Estación Meteorológica Peña el Pijo (Robertgarden) [ 07/07/20 11:57:21 CEST ]

Fecha Hora Presion(HPa) Temp (°C) Humedad % Rocio (°C) Viento ( m/s) Direccion Lluvia 1Hora(mm) Lluvia 24H(mm) LLuvia Total(mm)
2020-May-27 01:09:16 1016.300 - - - - W     39.88
2020-May-27 02:09:45 1016.200 - - - - W     39.88
2020-May-27 03:09:29 1016.000 - - - - W     39.88
2020-May-27 04:08:43 1015.600 - - - - W     39.88
2020-May-27 05:09:16 1015.400 - - - - W     39.88
2020-May-27 06:08:58 1015.600 - - - - W     39.88
2020-May-27 07:09:20 1016.100 - - - - W     39.88
2020-May-27 08:09:45 1016.100 - - - - W     39.88
2020-May-27 09:09:38 1016.100 - - - - W     39.88
2020-May-27 10:10:41 1016.100 - - - - W     39.88
2020-May-27 11:09:16 1016.100 - - - - W     39.88
2020-May-27 12:09:28 1016.100 - - - - W     39.88
2020-May-27 13:09:21 1016.000 - - - - W     39.88
2020-May-27 14:09:15 1015.600 - - - - W     39.88
2020-May-27 15:09:18 1015.700 - - - - W     39.88
2020-May-27 16:09:01 1015.300 - - - - W     39.88
2020-May-27 17:08:49 1015.400 - - - - W     39.88
2020-May-27 18:09:13 1014.400 - - - - W     39.88
2020-May-27 19:09:12 1014.200 - - - - W     39.88
2020-May-27 20:09:27 1014.700 - - - - W     39.88
2020-May-27 21:09:24 1014.900 - - - - W     39.88
2020-May-27 22:09:21 1015.700 - - - - W     39.88
2020-May-27 23:09:08 1016.400 - - - - W     39.88

Temperatura Máxima:    Temperatura Mínima:
Presión Máxima:1016.400 Hpa    Presión Mínima:1014.200 Hpa


Volver